Weather History for Winner, SD

Change the Weather History Date:

Sunday, March 18, 2012

  Actual Average Record
Temperature  
Mean Temperature 78 °F 38 °F  
Max Temperature 94 °F 49 °F 94 °F (2012)
Min Temperature 61 °F 26 °F 16 °F (2013)
Degree Days  
Heating Degree Days 0 27  
Month to date heating degree days 298 551  
Since 1 July heating degree days 4649 5560  
Cooling Degree Days 13 0  
Month to date cooling degree days 15 0  
Year to date cooling degree days 15 0  
Growing Degree Days 24 (Base 50)    
Moisture  
Dew Point 51 °F    
Average Humidity 48    
Maximum Humidity 84    
Minimum Humidity 11    
Precipitation  
Precipitation 0.00 in 0.05 in 0.00 in (2014)
Month to date precipitation 0.36 0.52  
Year to date precipitation 1.30 1.28  
Sea Level Pressure  
Sea Level Pressure 29.40 in    
Wind  
Wind Speed 24 mph (South)    
Max Wind Speed 38 mph    
Max Gust Speed 47 mph    
Visibility 10 miles    
Events      
T = Trace of Precipitation, MM = Missing Value Source: NWS Daily Summary

Daily Weather History Graph

Daily Weather History Graph

Search for Another Location

Airport:

Trip Planner

Search our weather history database for the weather conditions in past years. The results will help you decide how hot, cold, wet, or windy it might be!

Date:

Astronomy

Mar. 18, 2012 Rise Set
Actual Time 7:45 AM CDT 7:49 PM CDT
Civil Twilight 7:16 AM CDT 8:18 PM CDT
Nautical Twilight 6:43 AM CDT 8:51 PM CDT
Astronomical Twilight 6:09 AM CDT 9:25 PM CDT
Moon 5:31 AM CDT (3/18) 4:13 PM CDT (3/18)
Length of Visible Light 13h 01m
Length of Day
12h 04m
Waning Crescent, 15% of the Moon is Illuminated
Mar 18
Waning Crescent
Mar 22
New
Mar 30
First Quarter
Apr 6
Full
Apr 13
Last Quarter

Hourly Weather History & Observations

Time (CDT) Temp. Heat Index Dew Point Humidity Pressure Visibility Wind Dir Wind Speed Gust Speed Precip Events Conditions
12:53 AM 66.9 °F - 53.1 °F 61% 29.46 in 10.0 mi South 19.6 mph 27.6 mph N/A   Clear
1:53 AM 68.0 °F - 55.0 °F 63% 29.45 in 10.0 mi South 21.9 mph 33.4 mph N/A   Clear
2:53 AM 66.0 °F - 55.9 °F 70% 29.44 in 10.0 mi South 21.9 mph 31.1 mph N/A   Clear
3:53 AM 64.9 °F - 57.0 °F 75% 29.43 in 10.0 mi South 23.0 mph 29.9 mph N/A   Clear
4:53 AM 63.0 °F - 57.0 °F 81% 29.42 in 10.0 mi South 18.4 mph - N/A   Clear
5:53 AM 62.1 °F - 57.0 °F 84% 29.43 in 10.0 mi South 19.6 mph - N/A   Clear
7:53 AM 61.0 °F - 55.9 °F 83% 29.42 in 10.0 mi South 23.0 mph 29.9 mph N/A   Clear
8:53 AM 63.0 °F - 55.9 °F 78% 29.42 in 10.0 mi South 21.9 mph 33.4 mph N/A   Unknown
9:53 AM 64.9 °F - 55.0 °F 70% 29.44 in 10.0 mi South 23.0 mph 32.2 mph N/A   Clear
10:53 AM 69.1 °F - 53.1 °F 57% 29.44 in 10.0 mi South 27.6 mph 36.8 mph N/A   Clear
11:53 AM 73.0 °F - 50.0 °F 44% 29.43 in 10.0 mi South 18.4 mph 31.1 mph N/A   Clear
12:53 PM 78.1 °F - 48.0 °F 35% 29.42 in 10.0 mi South 21.9 mph 31.1 mph N/A   Clear
1:53 PM 82.9 °F - 42.1 °F 24% 29.38 in 10.0 mi South 25.3 mph 34.5 mph N/A   Clear
2:53 PM 87.1 °F - 32.0 °F 14% 29.37 in 10.0 mi South 21.9 mph 31.1 mph N/A   Clear
3:53 PM 88.0 °F - 27.0 °F 11% 29.34 in 10.0 mi South 24.2 mph 36.8 mph N/A   Clear
5:53 PM 86.0 °F - 45.0 °F 24% 29.32 in 10.0 mi SSE 25.3 mph 41.4 mph N/A   Clear
6:53 PM 82.0 °F 81.2 °F 53.1 °F 37% 29.32 in 10.0 mi SSE 23.0 mph 35.7 mph N/A   Clear
7:53 PM 75.9 °F - 55.0 °F 48% 29.34 in 10.0 mi SSE 25.3 mph 38.0 mph N/A   Clear
8:53 PM 75.0 °F - 54.0 °F 48% 29.34 in 10.0 mi SSE 21.9 mph 34.5 mph N/A   Clear
9:53 PM 73.0 °F - 55.9 °F 55% 29.35 in 10.0 mi SSE 21.9 mph 32.2 mph N/A   Clear
10:53 PM 71.1 °F - 57.9 °F 63% 29.37 in 10.0 mi SSE 27.6 mph 36.8 mph N/A   Clear